Location: *
(34.6780°N, 135.8310°E)
Time: 08:21:27
(UTC+00:00)

H-2A R/B - Pass Details

Date: 18 October 2019
Orbit: 530 x 653 km, 98.3° (Epoch: 12 November)

Event Time Altitude Azimuth Distance (km) Brightness Sun altitude
Rises 20:14:00 0° 347° (NNW) 2,818 5.8 -11.2°
Reaches altitude 10° 20:17:17 10° 319° (NW) 1,943 4.7 -10.5°
Maximum altitude 20:19:05 13° 293° (WNW) 1,791 4.3 -10.2°
Enters shadow 20:19:13 13° 291° (WNW) 1,793 4.3 -10.1°
